When you browse on this site, cookies collect data to enhance your experience and personalize the content and advertising you see.
Visit our Privacy Policy to learn more. By continuing to use the site, you agree to this use of cookies and data.
  • In Österreich
  • Länderverzeichnis
  • Für 7 Tage
  • Wassertemperatur
  • Satellitenkarten
  • Wetterkarte
  • News
  • Widgets
  • user-avatar
    Anmelden

    Stündliche Wetter Iokogama

    Heute, 17 Juli, Mittwoch

    Zeit Temperatur Niederschläge Wind Luftdruck Luftfeuchtigkeit
    00:00 +24°C° 0.4 mm 2 m/S 756 mmHg 85%
    01:00 +24°C° 0.4 mm 2 m/S 756 mmHg 84%
    02:00 +24°C° 0.4 mm 2 m/S 756 mmHg 84%
    03:00 +24°C° 0.4 mm 2 m/S 756 mmHg 83%
    04:00 +24°C° 0.3 mm 2 m/S 756 mmHg 83%
    05:00 +24°C° 0.3 mm 2 m/S 756 mmHg 82%
    06:00 +24°C° 0.3 mm 1 m/S 757 mmHg 82%
    07:00 +25°C° 0.8 mm 1 m/S 757 mmHg 78%
    08:00 +26°C° 0.8 mm 1 m/S 756 mmHg 74%
    09:00 +28°C° 0.8 mm 1 m/S 756 mmHg 69%
    10:00 +28°C° 0.3 mm 1 m/S 756 mmHg 66%
    11:00 +29°C° 0.3 mm 1 m/S 756 mmHg 63%
    12:00 +30°C° 0.3 mm 1 m/S 756 mmHg 60%
    13:00 +30°C° 0.1 mm 2 m/S 756 mmHg 61%
    14:00 +30°C° 0.1 mm 3 m/S 756 mmHg 61%
    15:00 +32°C° 0.1 mm 4 m/S 755 mmHg 62%
    16:00 +30°C° 0 mm 4 m/S 755 mmHg 66%
    17:00 +29°C° 0 mm 3 m/S 756 mmHg 70%
    18:00 +28°C° 0 mm 3 m/S 756 mmHg 74%
    19:00 +28°C° 0 mm 3 m/S 756 mmHg 78%
    20:00 +27°C° 0 mm 3 m/S 756 mmHg 82%
    21:00 +26°C° 0 mm 2 m/S 757 mmHg 86%
    22:00 +26°C° 0 mm 2 m/S 757 mmHg 86%
    23:00 +26°C° 0 mm 2 m/S 757 mmHg 87%

    Morgen, 18 Juli, Donnerstag

    Zeit Temperatur Niederschläge Wind Luftdruck Luftfeuchtigkeit
    00:00 +26°C° 0 mm 2 m/S 757 mmHg 87%
    01:00 +26°C° 0 mm 2 m/S 757 mmHg 87%
    02:00 +26°C° 0 mm 1 m/S 756 mmHg 87%
    03:00 +26°C° 0 mm 1 m/S 756 mmHg 87%
    04:00 +26°C° 0 mm 1 m/S 756 mmHg 86%
    05:00 +26°C° 0 mm 1 m/S 757 mmHg 85%
    06:00 +26°C° 0 mm 1 m/S 757 mmHg 84%
    07:00 +27°C° 0 mm 1 m/S 757 mmHg 79%
    08:00 +29°C° 0 mm 1 m/S 757 mmHg 73%
    09:00 +30°C° 0 mm 1 m/S 757 mmHg 68%
    10:00 +31°C° 0 mm 2 m/S 757 mmHg 65%
    11:00 +31°C° 0 mm 2 m/S 756 mmHg 62%
    12:00 +33°C° 0 mm 3 m/S 756 mmHg 59%
    13:00 +33°C° 0 mm 3 m/S 756 mmHg 60%
    14:00 +33°C° 0 mm 4 m/S 756 mmHg 60%
    15:00 +33°C° 0 mm 4 m/S 755 mmHg 60%
    16:00 +32°C° 0 mm 5 m/S 755 mmHg 65%
    17:00 +30°C° 0 mm 5 m/S 755 mmHg 70%
    18:00 +30°C° 0 mm 5 m/S 755 mmHg 75%
    19:00 +29°C° 0 mm 5 m/S 756 mmHg 76%
    20:00 +29°C° 0 mm 4 m/S 756 mmHg 77%
    21:00 +28°C° 0 mm 4 m/S 756 mmHg 78%
    22:00 +28°C° 0 mm 4 m/S 756 mmHg 79%
    23:00 +28°C° 0 mm 4 m/S 756 mmHg 80%

    übermorgen, 19 Juli, Freitag

    Zeit Temperatur Niederschläge Wind Luftdruck Luftfeuchtigkeit
    00:00 +28°C° 0 mm 4 m/S 756 mmHg 81%
    01:00 +28°C° 0 mm 4 m/S 756 mmHg 81%
    02:00 +28°C° 0 mm 4 m/S 755 mmHg 81%
    03:00 +27°C° 0 mm 4 m/S 755 mmHg 82%
    04:00 +27°C° 0 mm 4 m/S 755 mmHg 81%
    05:00 +28°C° 0 mm 4 m/S 755 mmHg 81%
    06:00 +28°C° 0 mm 4 m/S 756 mmHg 81%
    07:00 +28°C° 0 mm 4 m/S 756 mmHg 78%
    08:00 +29°C° 0 mm 4 m/S 756 mmHg 76%
    09:00 +30°C° 0 mm 4 m/S 756 mmHg 73%
    10:00 +32°C° 0 mm 5 m/S 756 mmHg 68%
    11:00 +33°C° 0 mm 6 m/S 755 mmHg 63%
    12:00 +34°C° 0 mm 7 m/S 755 mmHg 59%
    13:00 +34°C° 0.1 mm 7 m/S 755 mmHg 59%
    14:00 +34°C° 0.1 mm 7 m/S 755 mmHg 58%
    15:00 +34°C° 0.1 mm 7 m/S 754 mmHg 58%
    16:00 +33°C° 0 mm 7 m/S 755 mmHg 62%
    17:00 +32°C° 0 mm 7 m/S 755 mmHg 66%
    18:00 +30°C° 0 mm 7 m/S 755 mmHg 69%
    19:00 +30°C° 0 mm 6 m/S 756 mmHg 72%
    20:00 +29°C° 0 mm 6 m/S 756 mmHg 75%
    21:00 +28°C° 0 mm 6 m/S 756 mmHg 78%
    22:00 +28°C° 0 mm 5 m/S 756 mmHg 79%
    23:00 +28°C° 0 mm 5 m/S 756 mmHg 80%

    20 Juli, Samstag

    Zeit Temperatur Niederschläge Wind Luftdruck Luftfeuchtigkeit
    00:00 +28°C° 0 mm 4 m/S 756 mmHg 82%
    01:00 +27°C° 0.1 mm 4 m/S 756 mmHg 82%
    02:00 +27°C° 0.1 mm 4 m/S 756 mmHg 82%
    03:00 +27°C° 0.1 mm 4 m/S 756 mmHg 82%
    04:00 +27°C° 0.1 mm 4 m/S 756 mmHg 82%
    05:00 +28°C° 0.1 mm 3 m/S 756 mmHg 81%
    06:00 +28°C° 0.1 mm 3 m/S 756 mmHg 80%
    07:00 +29°C° 0.3 mm 4 m/S 756 mmHg 78%
    08:00 +29°C° 0.3 mm 4 m/S 756 mmHg 75%
    09:00 +30°C° 0.3 mm 4 m/S 756 mmHg 72%
    10:00 +32°C° 1.2 mm 5 m/S 756 mmHg 70%
    11:00 +32°C° 1.2 mm 6 m/S 756 mmHg 69%
    12:00 +33°C° 1.2 mm 6 m/S 756 mmHg 67%
    13:00 +33°C° 1 mm 7 m/S 755 mmHg 65%
    14:00 +33°C° 1 mm 7 m/S 755 mmHg 64%
    15:00 +33°C° 1 mm 8 m/S 755 mmHg 63%
    16:00 +33°C° 0.9 mm 7 m/S 755 mmHg 65%
    17:00 +32°C° 0.9 mm 7 m/S 755 mmHg 67%
    18:00 +30°C° 0.9 mm 7 m/S 755 mmHg 70%
    19:00 +30°C° 0.8 mm 6 m/S 756 mmHg 73%
    20:00 +29°C° 0.8 mm 6 m/S 756 mmHg 76%
    21:00 +28°C° 0.8 mm 5 m/S 756 mmHg 79%
    22:00 +28°C° 0.4 mm 5 m/S 756 mmHg 81%
    23:00 +28°C° 0.4 mm 5 m/S 756 mmHg 82%

    21 Juli, Sonntag

    Zeit Temperatur Niederschläge Wind Luftdruck Luftfeuchtigkeit
    00:00 +27°C° 0.4 mm 4 m/S 756 mmHg 83%
    01:00 +27°C° 0.1 mm 4 m/S 756 mmHg 83%
    02:00 +27°C° 0.1 mm 4 m/S 756 mmHg 83%
    03:00 +27°C° 0.1 mm 4 m/S 756 mmHg 83%
    04:00 +27°C° 0 mm 4 m/S 756 mmHg 82%
    05:00 +27°C° 0 mm 4 m/S 757 mmHg 81%
    06:00 +28°C° 0 mm 4 m/S 757 mmHg 79%
    07:00 +29°C° 0 mm 4 m/S 757 mmHg 73%
    08:00 +30°C° 0 mm 5 m/S 757 mmHg 67%
    09:00 +33°C° 0 mm 6 m/S 757 mmHg 60%
    10:00 +33°C° 0 mm 6 m/S 756 mmHg 58%
    11:00 +34°C° 0 mm 7 m/S 756 mmHg 56%
    12:00 +35°C° 0 mm 8 m/S 756 mmHg 54%
    13:00 +35°C° 0 mm 8 m/S 755 mmHg 53%
    14:00 +35°C° 0 mm 8 m/S 755 mmHg 52%
    15:00 +35°C° 0 mm 8 m/S 755 mmHg 51%
    16:00 +34°C° 0 mm 8 m/S 755 mmHg 54%
    17:00 +33°C° 0 mm 8 m/S 755 mmHg 58%
    18:00 +32°C° 0 mm 7 m/S 755 mmHg 62%
    19:00 +30°C° 0 mm 7 m/S 755 mmHg 65%
    20:00 +29°C° 0 mm 7 m/S 755 mmHg 69%
    21:00 +29°C° 0 mm 7 m/S 755 mmHg 73%
    22:00 +28°C° 0 mm 6 m/S 755 mmHg 73%
    23:00 +28°C° 0 mm 6 m/S 755 mmHg 74%

    22 Juli, Montag

    Zeit Temperatur Niederschläge Wind Luftdruck Luftfeuchtigkeit
    00:00 +28°C° 0 mm 6 m/S 755 mmHg 75%
    01:00 +28°C° 0 mm 6 m/S 755 mmHg 75%
    02:00 +28°C° 0 mm 5 m/S 754 mmHg 75%
    03:00 +27°C° 0 mm 5 m/S 754 mmHg 75%
    04:00 +28°C° 0 mm 5 m/S 754 mmHg 74%
    05:00 +28°C° 0 mm 5 m/S 754 mmHg 74%
    06:00 +28°C° 0 mm 5 m/S 754 mmHg 73%
    07:00 +28°C° 0 mm 5 m/S 754 mmHg 71%
    08:00 +29°C° 0 mm 5 m/S 754 mmHg 70%
    09:00 +29°C° 0 mm 4 m/S 755 mmHg 68%
    10:00 +30°C° 0 mm 5 m/S 754 mmHg 64%
    11:00 +32°C° 0 mm 5 m/S 754 mmHg 60%
    12:00 +33°C° 0 mm 5 m/S 754 mmHg 56%
    13:00 +33°C° 0 mm 6 m/S 754 mmHg 58%
    14:00 +33°C° 0 mm 6 m/S 754 mmHg 60%
    15:00 +33°C° 0 mm 7 m/S 754 mmHg 61%
    16:00 +32°C° 0.3 mm 6 m/S 754 mmHg 67%
    17:00 +29°C° 0.3 mm 6 m/S 754 mmHg 73%
    18:00 +28°C° 0.3 mm 5 m/S 754 mmHg 78%
    19:00 +28°C° 0 mm 5 m/S 754 mmHg 78%
    20:00 +28°C° 0 mm 5 m/S 754 mmHg 77%
    21:00 +28°C° 0 mm 4 m/S 754 mmHg 77%
    22:00 +28°C° 0 mm 4 m/S 754 mmHg 77%
    23:00 +28°C° 0 mm 4 m/S 754 mmHg 78%
    Mehr zeigen